DLH912 KBIL-KDEN

Flight info

Callsign DLH912
Flight time 1h 9m
Altitude 37000
Route BIL BOY TOFUU FLATI5
Aircraft A320/M-SDE3FGHIRWY/LB1

Departure

Time 2026-05-05 01:29
Airport Billings Logan International Airport (KBIL)

Arrival

Time 2026-05-05 02:39
Airport Denver International Airport (KDEN)
Time Latitude Longitude Altitude Speed Heading
2026-05-05 01:20 45.80468 -108.53600 3554 ft 0 kts 230°
2026-05-05 01:22 45.80468 -108.53598 3554 ft 2 kts 230°
2026-05-05 01:22 45.80483 -108.53581 3553 ft 3 kts 193°
2026-05-05 01:22 45.80501 -108.53579 3551 ft 3 kts 157°
2026-05-05 01:23 45.80512 -108.53587 3552 ft 0 kts 134°
2026-05-05 01:25 45.80508 -108.53574 3552 ft 6 kts 115°
2026-05-05 01:25 45.80484 -108.53455 3546 ft 19 kts 107°
2026-05-05 01:25 45.80482 -108.53446 3546 ft 20 kts 107°
2026-05-05 01:26 45.80464 -108.53362 3543 ft 19 kts 101°
2026-05-05 01:26 45.80469 -108.53141 3538 ft 25 kts 84°
2026-05-05 01:26 45.80430 -108.52876 3526 ft 30 kts 111°
2026-05-05 01:26 45.80349 -108.52574 3517 ft 34 kts 111°
2026-05-05 01:27 45.80254 -108.52255 3509 ft 37 kts 114°
2026-05-05 01:27 45.80162 -108.51966 3505 ft 27 kts 112°
2026-05-05 01:27 45.80118 -108.51795 3501 ft 12 kts 100°
2026-05-05 01:27 45.80158 -108.51696 3502 ft 13 kts 30°
2026-05-05 01:28 45.80228 -108.51731 3503 ft 12 kts 290°
2026-05-05 01:28 45.80232 -108.51746 3503 ft 0 kts 290°
2026-05-05 01:28 45.80309 -108.52022 3513 ft 66 kts 293°
2026-05-05 01:28 45.80556 -108.52908 3531 ft 124 kts 291°
2026-05-05 01:29 45.80935 -108.54268 3603 ft 166 kts 296°
2026-05-05 01:29 45.81386 -108.55878 4163 ft 178 kts 295°
2026-05-05 01:29 45.81843 -108.57582 4842 ft 193 kts 294°
2026-05-05 01:29 45.82312 -108.59487 5196 ft 212 kts 289°
2026-05-05 01:30 45.82405 -108.61775 5328 ft 256 kts 256°
2026-05-05 01:30 45.81370 -108.63956 5956 ft 279 kts 219°
2026-05-05 01:30 45.79580 -108.64978 6807 ft 290 kts 186°
2026-05-05 01:30 45.77570 -108.64593 7653 ft 297 kts 163°
2026-05-05 01:31 45.75591 -108.63671 8534 ft 301 kts 162°
2026-05-05 01:31 45.73581 -108.62727 9393 ft 307 kts 162°
2026-05-05 01:31 45.71537 -108.61766 10184 ft 314 kts 163°
2026-05-05 01:31 45.69373 -108.60788 10508 ft 338 kts 167°
2026-05-05 01:32 45.66997 -108.60111 10784 ft 360 kts 174°
2026-05-05 01:32 45.64463 -108.59703 11001 ft 382 kts 178°
2026-05-05 01:32 45.61736 -108.59426 11146 ft 405 kts 179°
2026-05-05 01:32 45.58864 -108.59175 11451 ft 420 kts 179°
2026-05-05 01:33 45.55917 -108.58884 12030 ft 426 kts 179°
2026-05-05 01:33 45.52942 -108.58528 12607 ft 432 kts 178°
2026-05-05 01:33 45.49935 -108.58116 13198 ft 437 kts 178°
2026-05-05 01:33 45.46902 -108.57667 13785 ft 441 kts 178°
2026-05-05 01:34 45.43832 -108.57202 14285 ft 446 kts 178°
2026-05-05 01:34 45.40772 -108.56741 14783 ft 450 kts 178°
2026-05-05 01:34 45.37651 -108.56278 15274 ft 453 kts 178°
2026-05-05 01:34 45.34499 -108.55820 15795 ft 457 kts 178°
2026-05-05 01:35 45.31322 -108.55367 16324 ft 460 kts 178°
2026-05-05 01:35 45.28134 -108.54922 16857 ft 463 kts 179°
2026-05-05 01:35 45.24918 -108.54478 17365 ft 465 kts 179°
2026-05-05 01:35 45.21690 -108.54032 17878 ft 468 kts 179°
2026-05-05 01:36 45.18440 -108.53577 18390 ft 470 kts 179°
2026-05-05 01:36 45.15182 -108.53117 18833 ft 472 kts 179°
2026-05-05 01:36 45.11948 -108.52656 19246 ft 474 kts 179°
2026-05-05 01:36 45.08659 -108.52183 19660 ft 475 kts 179°
2026-05-05 01:37 45.05367 -108.51714 20065 ft 477 kts 179°
2026-05-05 01:37 45.02059 -108.51247 20464 ft 479 kts 179°
2026-05-05 01:37 44.98739 -108.50781 20852 ft 481 kts 179°
2026-05-05 01:37 44.95402 -108.50315 21229 ft 482 kts 179°
2026-05-05 01:38 44.92055 -108.49851 21577 ft 484 kts 179°
2026-05-05 01:38 44.88698 -108.49386 21926 ft 487 kts 179°
2026-05-05 01:38 44.85363 -108.48922 22249 ft 489 kts 179°
2026-05-05 01:38 44.81968 -108.48448 22580 ft 491 kts 179°
2026-05-05 01:39 44.78567 -108.47972 22909 ft 493 kts 179°
2026-05-05 01:39 44.75151 -108.47498 23232 ft 495 kts 179°
2026-05-05 01:39 44.71715 -108.47023 23550 ft 497 kts 179°
2026-05-05 01:39 44.68271 -108.46545 23884 ft 497 kts 179°
2026-05-05 01:40 44.64838 -108.46063 24275 ft 495 kts 179°
2026-05-05 01:40 44.61420 -108.45584 24677 ft 494 kts 179°
2026-05-05 01:40 44.58048 -108.45116 25071 ft 492 kts 179°
2026-05-05 01:40 44.54639 -108.44646 25472 ft 491 kts 179°
2026-05-05 01:41 44.51245 -108.44180 25879 ft 490 kts 179°
2026-05-05 01:41 44.47851 -108.43714 26295 ft 489 kts 179°
2026-05-05 01:41 44.44471 -108.43249 26702 ft 488 kts 179°
2026-05-05 01:41 44.41095 -108.42784 27116 ft 487 kts 179°
2026-05-05 01:42 44.37721 -108.42318 27535 ft 486 kts 179°
2026-05-05 01:42 44.34398 -108.41862 27959 ft 485 kts 179°
2026-05-05 01:42 44.31037 -108.41403 28393 ft 484 kts 179°
2026-05-05 01:42 44.27690 -108.40948 28821 ft 483 kts 179°
2026-05-05 01:43 44.24348 -108.40492 29238 ft 483 kts 179°
2026-05-05 01:43 44.21003 -108.40037 29653 ft 482 kts 179°
2026-05-05 01:43 44.17661 -108.39583 30064 ft 482 kts 179°
2026-05-05 01:43 44.14329 -108.39129 30398 ft 482 kts 179°
2026-05-05 01:44 44.10990 -108.38674 30725 ft 482 kts 179°
2026-05-05 01:44 44.07693 -108.38225 31046 ft 482 kts 179°
2026-05-05 01:44 44.04357 -108.37772 31360 ft 483 kts 179°
2026-05-05 01:44 44.01016 -108.37319 31671 ft 483 kts 179°
2026-05-05 01:45 43.97664 -108.36864 31998 ft 484 kts 179°
2026-05-05 01:45 43.94310 -108.36407 32334 ft 484 kts 179°
2026-05-05 01:45 43.90961 -108.35953 32655 ft 484 kts 179°
2026-05-05 01:45 43.87601 -108.35500 32976 ft 485 kts 179°
2026-05-05 01:46 43.84285 -108.35051 33305 ft 485 kts 179°
2026-05-05 01:46 43.80929 -108.34600 33638 ft 485 kts 179°
2026-05-05 01:46 43.77574 -108.34152 33972 ft 485 kts 179°
2026-05-05 01:46 43.74212 -108.33700 34277 ft 484 kts 179°
2026-05-05 01:47 43.70858 -108.33250 34610 ft 483 kts 179°
2026-05-05 01:47 43.67519 -108.32804 34939 ft 482 kts 179°
2026-05-05 01:47 43.64187 -108.32356 35299 ft 480 kts 179°
2026-05-05 01:47 43.60879 -108.31912 35653 ft 477 kts 179°
2026-05-05 01:48 43.57626 -108.31472 35990 ft 474 kts 180°
2026-05-05 01:48 43.54354 -108.31034 36316 ft 472 kts 180°
2026-05-05 01:48 43.51091 -108.30597 36634 ft 470 kts 180°
2026-05-05 01:48 43.47841 -108.30154 36870 ft 469 kts 179°
2026-05-05 01:49 43.41409 -108.28074 36878 ft 479 kts 169°
2026-05-05 01:49 43.35001 -108.25553 36873 ft 478 kts 169°
2026-05-05 01:50 43.28663 -108.23056 36873 ft 477 kts 170°
2026-05-05 01:50 43.22277 -108.20557 36879 ft 476 kts 170°
2026-05-05 01:51 43.15914 -108.18088 36881 ft 475 kts 170°
2026-05-05 01:51 43.09551 -108.15624 36882 ft 475 kts 170°
2026-05-05 01:52 43.03231 -108.13181 36881 ft 475 kts 171°
2026-05-05 01:52 42.96877 -108.10724 36870 ft 475 kts 171°
2026-05-05 01:53 42.90525 -108.08265 36854 ft 474 kts 171°
2026-05-05 01:53 42.84183 -108.05817 36833 ft 473 kts 171°
2026-05-05 01:54 42.77847 -108.03383 36822 ft 473 kts 171°
2026-05-05 01:54 42.71557 -108.00972 36820 ft 473 kts 171°
2026-05-05 01:55 42.65225 -107.98560 36815 ft 473 kts 172°
2026-05-05 01:55 42.58895 -107.96152 36807 ft 472 kts 172°
2026-05-05 01:56 42.52570 -107.93737 36804 ft 472 kts 172°
2026-05-05 01:56 42.46256 -107.91331 36798 ft 471 kts 172°
2026-05-05 01:57 42.39991 -107.88957 36788 ft 471 kts 172°
2026-05-05 01:57 42.33687 -107.86574 36778 ft 470 kts 172°
2026-05-05 01:58 42.27381 -107.84185 36775 ft 470 kts 172°
2026-05-05 01:58 42.21077 -107.81812 36767 ft 470 kts 173°
2026-05-05 01:59 42.14811 -107.79463 36759 ft 471 kts 173°
2026-05-05 01:59 42.08490 -107.77088 36758 ft 471 kts 173°
2026-05-05 02:00 42.02171 -107.74719 36755 ft 471 kts 173°
2026-05-05 02:00 41.95851 -107.72357 36754 ft 471 kts 173°
2026-05-05 02:01 41.89578 -107.70019 36752 ft 471 kts 173°
2026-05-05 02:01 41.83330 -107.67116 36763 ft 486 kts 160°
2026-05-05 02:02 41.80440 -107.64683 36772 ft 497 kts 149°
2026-05-05 02:02 41.77845 -107.61543 36790 ft 508 kts 139°
2026-05-05 02:02 41.73126 -107.54461 36816 ft 510 kts 138°
2026-05-05 02:03 41.68418 -107.47450 36835 ft 510 kts 139°
2026-05-05 02:03 41.63651 -107.40403 36841 ft 511 kts 139°
2026-05-05 02:04 41.58883 -107.33360 36836 ft 511 kts 139°
2026-05-05 02:04 41.54115 -107.26305 36827 ft 512 kts 139°
2026-05-05 02:05 41.49373 -107.19306 36845 ft 512 kts 139°
2026-05-05 02:05 41.44584 -107.12267 36895 ft 512 kts 139°
2026-05-05 02:06 41.39798 -107.05247 36923 ft 512 kts 139°
2026-05-05 02:06 41.35018 -106.98230 36938 ft 511 kts 139°
2026-05-05 02:07 41.30237 -106.91224 36937 ft 511 kts 139°
2026-05-05 02:07 41.25483 -106.84291 36924 ft 511 kts 140°
2026-05-05 02:08 41.20685 -106.77315 36899 ft 511 kts 140°
2026-05-05 02:08 41.15891 -106.70361 36871 ft 511 kts 140°
2026-05-05 02:09 41.11092 -106.63409 36855 ft 511 kts 140°
2026-05-05 02:09 41.06334 -106.56525 36867 ft 510 kts 140°
2026-05-05 02:10 41.01534 -106.49590 36865 ft 510 kts 141°
2026-05-05 02:10 40.96724 -106.42676 36864 ft 511 kts 141°
2026-05-05 02:11 40.91900 -106.35762 36860 ft 512 kts 141°
2026-05-05 02:11 40.87103 -106.28888 36805 ft 512 kts 140°
2026-05-05 02:12 40.84847 -106.25179 35768 ft 529 kts 131°
2026-05-05 02:12 40.81463 -106.16413 33876 ft 529 kts 117°
2026-05-05 02:12 40.79947 -106.11992 32442 ft 528 kts 118°
2026-05-05 02:13 40.78398 -106.07628 31383 ft 519 kts 118°
2026-05-05 02:13 40.76861 -106.03383 30380 ft 509 kts 118°
2026-05-05 02:13 40.75342 -105.99211 29140 ft 501 kts 117°
2026-05-05 02:13 40.73875 -105.95166 28092 ft 489 kts 117°
2026-05-05 02:14 40.72409 -105.91100 26910 ft 493 kts 117°
2026-05-05 02:14 40.70935 -105.87002 26074 ft 491 kts 117°
2026-05-05 02:14 40.69506 -105.83012 25940 ft 473 kts 117°
2026-05-05 02:14 40.68132 -105.79160 25822 ft 456 kts 117°
2026-05-05 02:15 40.66800 -105.75429 25515 ft 444 kts 117°
2026-05-05 02:15 40.65513 -105.71842 25204 ft 435 kts 117°
2026-05-05 02:15 40.64232 -105.68288 24890 ft 425 kts 117°
2026-05-05 02:15 40.62961 -105.64775 24099 ft 428 kts 117°
2026-05-05 02:16 40.61656 -105.61188 23000 ft 439 kts 117°
2026-05-05 02:16 40.60343 -105.57585 22559 ft 431 kts 117°
2026-05-05 02:16 40.59074 -105.54097 22453 ft 414 kts 117°
2026-05-05 02:16 40.57854 -105.50733 22354 ft 400 kts 117°
2026-05-05 02:17 40.56681 -105.47489 22187 ft 388 kts 117°
2026-05-05 02:17 40.55536 -105.44332 22021 ft 377 kts 117°
2026-05-05 02:17 40.54435 -105.41306 21846 ft 366 kts 117°
2026-05-05 02:17 40.53333 -105.38288 21324 ft 367 kts 117°
2026-05-05 02:18 40.52224 -105.35258 20873 ft 367 kts 117°
2026-05-05 02:18 40.51118 -105.32241 20420 ft 367 kts 117°
2026-05-05 02:18 40.50010 -105.29218 19969 ft 366 kts 116°
2026-05-05 02:18 40.48907 -105.26208 19516 ft 366 kts 116°
2026-05-05 02:19 40.47805 -105.23199 19131 ft 364 kts 116°
2026-05-05 02:19 40.46663 -105.20269 19029 ft 357 kts 123°
2026-05-05 02:19 40.45174 -105.17701 18894 ft 352 kts 135°
2026-05-05 02:19 40.43337 -105.15606 18721 ft 348 kts 147°
2026-05-05 02:20 40.41358 -105.13791 18556 ft 347 kts 147°
2026-05-05 02:20 40.39412 -105.11992 18392 ft 346 kts 147°
2026-05-05 02:20 40.37451 -105.10170 18238 ft 345 kts 147°
2026-05-05 02:20 40.35498 -105.08351 18103 ft 345 kts 147°
2026-05-05 02:21 40.33548 -105.06535 17930 ft 343 kts 147°
2026-05-05 02:21 40.31600 -105.04723 17763 ft 343 kts 147°
2026-05-05 02:21 40.29657 -105.02918 17592 ft 342 kts 147°
2026-05-05 02:21 40.27717 -105.01122 17442 ft 341 kts 147°
2026-05-05 02:22 40.25786 -104.99338 17270 ft 339 kts 147°
2026-05-05 02:22 40.23857 -104.97557 17109 ft 338 kts 148°
2026-05-05 02:22 40.21933 -104.95784 16933 ft 338 kts 148°
2026-05-05 02:22 40.20046 -104.94042 16671 ft 336 kts 148°
2026-05-05 02:23 40.18102 -104.92373 16412 ft 332 kts 155°
2026-05-05 02:23 40.16009 -104.91130 16157 ft 329 kts 160°
2026-05-05 02:23 40.13908 -104.89949 15918 ft 328 kts 160°
2026-05-05 02:23 40.11814 -104.88771 15677 ft 327 kts 160°
2026-05-05 02:24 40.09726 -104.87597 15438 ft 326 kts 160°
2026-05-05 02:24 40.07643 -104.86426 15198 ft 325 kts 160°
2026-05-05 02:24 40.05572 -104.85262 14961 ft 324 kts 160°
2026-05-05 02:24 40.03503 -104.84099 14719 ft 323 kts 160°
2026-05-05 02:25 40.01475 -104.82945 14477 ft 322 kts 159°
2026-05-05 02:25 39.99427 -104.81769 14254 ft 321 kts 159°
2026-05-05 02:25 39.97344 -104.80796 14030 ft 316 kts 170°
2026-05-05 02:25 39.95172 -104.80427 13576 ft 316 kts 183°
2026-05-05 02:26 39.92955 -104.80490 12995 ft 321 kts 184°
2026-05-05 02:26 39.90711 -104.80567 12461 ft 324 kts 184°
2026-05-05 02:26 39.88454 -104.80641 11926 ft 327 kts 183°
2026-05-05 02:26 39.86172 -104.80711 11385 ft 329 kts 183°
2026-05-05 02:27 39.83920 -104.80781 11252 ft 317 kts 183°
2026-05-05 02:27 39.81781 -104.80836 11166 ft 305 kts 182°
2026-05-05 02:27 39.79679 -104.80875 11009 ft 300 kts 182°
2026-05-05 02:27 39.77603 -104.80901 10979 ft 298 kts 182°
2026-05-05 02:28 39.75532 -104.80918 10985 ft 293 kts 181°
2026-05-05 02:28 39.73554 -104.80928 10983 ft 276 kts 182°
2026-05-05 02:28 39.71677 -104.80938 10981 ft 266 kts 181°
2026-05-05 02:28 39.69833 -104.80954 10983 ft 264 kts 182°
2026-05-05 02:29 39.67999 -104.80973 10984 ft 263 kts 182°
2026-05-05 02:29 39.66166 -104.80993 10984 ft 264 kts 182°
2026-05-05 02:29 39.64357 -104.81011 10990 ft 264 kts 181°
2026-05-05 02:29 39.62586 -104.80618 11010 ft 254 kts 159°
2026-05-05 02:30 39.61051 -104.79610 11010 ft 241 kts 153°
2026-05-05 02:30 39.59608 -104.78616 11038 ft 233 kts 153°
2026-05-05 02:30 39.58184 -104.77638 11013 ft 227 kts 153°
2026-05-05 02:30 39.56813 -104.76695 11010 ft 221 kts 153°
2026-05-05 02:31 39.55458 -104.75764 11012 ft 220 kts 153°
2026-05-05 02:31 39.54109 -104.74840 11014 ft 219 kts 153°
2026-05-05 02:31 39.52900 -104.73711 11022 ft 211 kts 132°
2026-05-05 02:31 39.52178 -104.72083 11005 ft 209 kts 106°
2026-05-05 02:32 39.52046 -104.70230 11001 ft 207 kts 82°
2026-05-05 02:32 39.52509 -104.68487 10996 ft 205 kts 57°
2026-05-05 02:32 39.53458 -104.67170 10980 ft 204 kts 33°
2026-05-05 02:32 39.54746 -104.66454 10839 ft 201 kts
2026-05-05 02:33 39.56134 -104.66366 10619 ft 200 kts 360°
2026-05-05 02:33 39.57521 -104.66355 10375 ft 199 kts
2026-05-05 02:33 39.58897 -104.66340 10114 ft 198 kts
2026-05-05 02:33 39.60270 -104.66324 9866 ft 197 kts
2026-05-05 02:34 39.61636 -104.66308 9609 ft 195 kts
2026-05-05 02:34 39.62989 -104.66292 9343 ft 194 kts
2026-05-05 02:34 39.64333 -104.66276 9082 ft 193 kts
2026-05-05 02:34 39.65669 -104.66260 8821 ft 189 kts
2026-05-05 02:35 39.66960 -104.66245 8587 ft 181 kts
2026-05-05 02:35 39.68174 -104.66230 8343 ft 170 kts
2026-05-05 02:35 39.69325 -104.66216 8123 ft 165 kts
2026-05-05 02:35 39.70466 -104.66203 7905 ft 163 kts
2026-05-05 02:36 39.71593 -104.66189 7699 ft 161 kts
2026-05-05 02:36 39.72705 -104.66176 7490 ft 160 kts 360°
2026-05-05 02:36 39.73815 -104.66163 7283 ft 159 kts
2026-05-05 02:36 39.74914 -104.66150 7082 ft 158 kts 359°
2026-05-05 02:37 39.76012 -104.66136 6877 ft 158 kts 359°
2026-05-05 02:37 39.77105 -104.66123 6709 ft 156 kts
2026-05-05 02:37 39.78188 -104.66111 6515 ft 155 kts
2026-05-05 02:37 39.79258 -104.66098 6288 ft 155 kts
2026-05-05 02:38 39.80349 -104.66085 6050 ft 158 kts
2026-05-05 02:38 39.81441 -104.66072 5808 ft 160 kts
2026-05-05 02:38 39.82558 -104.66064 5580 ft 160 kts
2026-05-05 02:38 39.83663 -104.66055 5439 ft 149 kts
2026-05-05 02:39 39.84571 -104.66029 5405 ft 106 kts 359°
2026-05-05 02:39 39.85125 -104.66042 5397 ft 47 kts 353°
2026-05-05 02:39 39.85297 -104.66161 5394 ft 26 kts 326°
2026-05-05 02:39 39.85461 -104.66239 5394 ft 25 kts
2026-05-05 02:40 39.85640 -104.66239 5393 ft 28 kts 360°
2026-05-05 02:40 39.85863 -104.66234 5394 ft 36 kts
2026-05-05 02:40 39.86015 -104.66294 5388 ft 22 kts 283°
2026-05-05 02:40 39.86020 -104.66499 5387 ft 23 kts 279°
2026-05-05 02:41 39.86058 -104.66686 5387 ft 22 kts 272°
2026-05-05 02:41 39.86054 -104.66888 5387 ft 19 kts 243°
2026-05-05 02:41 39.85961 -104.66959 5387 ft 13 kts 178°
2026-05-05 02:41 39.85930 -104.66960 5387 ft 0 kts 181°